Time,TemperatureF,DewpointF,PressureIn,WindDirection,WindDirectionDegrees,WindSpeedMPH,WindSpeedGustMPH,Humidity,HourlyPrecipIn,Conditions,Clouds,dailyrainin,SoftwareType,DateUTC
2013-02-06 00:02:00,27.0,18.0,29.93,East,98,0.0,2.0,68,0.00,,,0.00,,2013-02-06 05:02:00,
2013-02-06 00:12:00,27.0,18.0,29.93,East,98,0.0,2.0,68,0.00,,,0.00,,2013-02-06 05:12:00,
2013-02-06 00:22:00,27.0,19.0,29.93,East,98,2.0,3.0,71,0.00,,,0.00,,2013-02-06 05:22:00,
2013-02-06 00:32:00,28.0,20.0,29.93,East,98,1.0,3.0,72,0.00,,,0.00,,2013-02-06 05:32:00,
2013-02-06 00:42:00,28.0,20.0,29.93,East,98,1.0,3.0,72,0.00,,,0.00,,2013-02-06 05:42:00,
2013-02-06 00:53:00,27.0,20.0,29.92,East,98,0.0,2.0,75,0.00,,,0.00,,2013-02-06 05:53:00,
2013-02-06 01:01:00,27.0,20.0,29.92,East,98,0.0,2.0,75,0.00,,,0.00,,2013-02-06 06:01:00,
2013-02-06 01:11:00,27.0,20.0,29.92,East,98,0.0,2.0,75,0.00,,,0.00,,2013-02-06 06:11:00,
2013-02-06 01:22:00,26.0,19.0,29.92,East,98,0.0,2.0,75,0.00,,,0.00,,2013-02-06 06:22:00,
2013-02-06 01:32:00,25.0,18.0,29.92,East,98,2.0,3.0,75,0.00,,,0.00,,2013-02-06 06:32:00,
2013-02-06 01:42:00,25.0,18.0,29.92,East,98,2.0,3.0,75,0.00,,,0.00,,2013-02-06 06:42:00,
2013-02-06 01:52:00,25.0,19.0,29.92,East,98,0.0,0.0,77,0.00,,,0.00,,2013-02-06 06:52:00,
2013-02-06 02:01:00,25.0,19.0,29.92,East,98,0.0,0.0,76,0.00,,,0.00,,2013-02-06 07:01:00,
2013-02-06 02:11:00,25.0,19.0,29.92,East,98,0.0,0.0,76,0.00,,,0.00,,2013-02-06 07:11:00,
2013-02-06 02:22:00,24.0,18.0,29.92,East,98,0.0,2.0,78,0.00,,,0.00,,2013-02-06 07:22:00,
2013-02-06 02:32:00,24.0,18.0,29.92,East,98,2.0,5.0,78,0.00,,,0.00,,2013-02-06 07:32:00,
2013-02-06 02:42:00,24.0,18.0,29.92,East,98,2.0,5.0,78,0.00,,,0.00,,2013-02-06 07:42:00,
2013-02-06 02:52:00,24.0,18.0,29.92,East,98,2.0,5.0,79,0.00,,,0.00,,2013-02-06 07:52:00,
2013-02-06 03:01:00,24.0,19.0,29.92,East,91,2.0,5.0,80,0.00,,,0.00,,2013-02-06 08:01:00,
2013-02-06 03:11:00,24.0,19.0,29.92,East,91,2.0,5.0,80,0.00,,,0.00,,2013-02-06 08:11:00,
2013-02-06 03:21:00,24.0,19.0,29.93,NE,42,1.0,6.0,80,0.00,,,0.00,,2013-02-06 08:21:00,
2013-02-06 03:31:00,23.0,18.0,29.93,NE,42,2.0,3.0,81,0.00,,,0.00,,2013-02-06 08:31:00,
2013-02-06 03:42:00,23.0,18.0,29.93,NE,42,2.0,3.0,81,0.00,,,0.00,,2013-02-06 08:42:00,
2013-02-06 03:53:00,23.0,19.0,29.93,NE,42,1.0,2.0,83,0.00,,,0.00,,2013-02-06 08:53:00,
2013-02-06 04:02:00,23.0,19.0,29.93,NE,42,1.0,2.0,83,0.00,,,0.00,,2013-02-06 09:02:00,
2013-02-06 04:11:00,23.0,19.0,29.93,NE,42,1.0,2.0,83,0.00,,,0.00,,2013-02-06 09:11:00,
2013-02-06 04:22:00,24.0,20.0,29.94,NE,42,0.0,0.0,84,0.00,,,0.00,,2013-02-06 09:22:00,
2013-02-06 04:32:00,24.0,20.0,29.94,NE,42,0.0,0.0,84,0.00,,,0.00,,2013-02-06 09:32:00,
2013-02-06 04:42:00,24.0,20.0,29.94,NE,42,0.0,0.0,84,0.00,,,0.00,,2013-02-06 09:42:00,
2013-02-06 04:52:00,25.0,21.0,29.95,NE,42,0.0,0.0,85,0.00,,,0.00,,2013-02-06 09:52:00,
2013-02-06 05:01:00,25.0,21.0,29.96,NE,42,0.0,0.0,83,0.00,,,0.00,,2013-02-06 10:01:00,
2013-02-06 05:11:00,25.0,21.0,29.96,NE,42,0.0,0.0,83,0.00,,,0.00,,2013-02-06 10:11:00,
2013-02-06 05:22:00,25.0,21.0,29.97,NE,42,1.0,2.0,83,0.00,,,0.00,,2013-02-06 10:22:00,
2013-02-06 05:32:00,25.0,21.0,29.97,NE,42,0.0,2.0,83,0.00,,,0.00,,2013-02-06 10:32:00,
2013-02-06 05:42:00,25.0,21.0,29.97,NE,42,0.0,2.0,83,0.00,,,0.00,,2013-02-06 10:42:00,
2013-02-06 05:52:00,25.0,21.0,29.97,NE,42,0.0,2.0,83,0.00,,,0.00,,2013-02-06 10:52:00,
2013-02-06 06:01:00,25.0,21.0,29.98,NE,42,0.0,2.0,83,0.00,,,0.00,,2013-02-06 11:01:00,
2013-02-06 06:11:00,25.0,21.0,29.98,NE,42,0.0,2.0,83,0.00,,,0.00,,2013-02-06 11:11:00,
2013-02-06 06:22:00,25.0,21.0,29.98,NE,42,0.0,0.0,83,0.00,,,0.00,,2013-02-06 11:22:00,
2013-02-06 06:32:00,25.0,21.0,29.98,NE,42,0.0,3.0,83,0.00,,,0.00,,2013-02-06 11:32:00,
2013-02-06 06:42:00,25.0,21.0,29.98,NE,42,0.0,3.0,83,0.00,,,0.00,,2013-02-06 11:42:00,
2013-02-06 06:53:00,26.0,22.0,29.99,NE,42,1.0,2.0,84,0.00,,,0.00,,2013-02-06 11:53:00,
2013-02-06 07:02:00,26.0,22.0,29.99,NE,42,2.0,3.0,83,0.00,,,0.00,,2013-02-06 12:02:00,
2013-02-06 07:12:00,26.0,22.0,29.99,NE,42,2.0,3.0,83,0.00,,,0.00,,2013-02-06 12:12:00,
2013-02-06 07:22:00,26.0,22.0,30.01,NE,42,2.0,4.0,83,0.00,,,0.00,,2013-02-06 12:22:00,
2013-02-06 07:32:00,26.0,21.0,30.01,NE,42,2.0,4.0,82,0.00,,,0.00,,2013-02-06 12:32:00,
2013-02-06 07:42:00,26.0,21.0,30.01,NE,42,2.0,4.0,82,0.00,,,0.00,,2013-02-06 12:42:00,
2013-02-06 07:52:00,27.0,22.0,30.01,ENE,71,3.0,5.0,82,0.00,,,0.00,,2013-02-06 12:52:00,
2013-02-06 08:01:00,27.0,23.0,30.01,ESE,114,3.0,7.0,83,0.00,,,0.00,,2013-02-06 13:01:00,
2013-02-06 08:12:00,27.0,23.0,30.01,ESE,114,3.0,7.0,83,0.00,,,0.00,,2013-02-06 13:12:00,
2013-02-06 08:22:00,27.0,23.0,30.02,SE,143,3.0,5.0,83,0.00,,,0.00,,2013-02-06 13:22:00,
2013-02-06 08:32:00,27.0,23.0,30.02,SE,146,3.0,6.0,83,0.00,,,0.00,,2013-02-06 13:32:00,
2013-02-06 08:42:00,27.0,23.0,30.02,SE,146,3.0,6.0,83,0.00,,,0.00,,2013-02-06 13:42:00,
2013-02-06 08:52:00,28.0,23.0,30.02,SSE,150,2.0,5.0,82,0.00,,,0.00,,2013-02-06 13:52:00,
2013-02-06 09:02:00,29.0,23.0,30.02,SSE,150,1.0,4.0,79,0.00,,,0.00,,2013-02-06 14:02:00,
2013-02-06 09:11:00,29.0,23.0,30.02,SSE,150,1.0,4.0,79,0.00,,,0.00,,2013-02-06 14:11:00,
2013-02-06 09:22:00,30.0,24.0,30.02,SSE,151,3.0,5.0,77,0.00,,,0.00,,2013-02-06 14:22:00,
2013-02-06 09:32:00,30.0,23.0,30.03,SSE,151,3.0,5.0,75,0.00,,,0.00,,2013-02-06 14:32:00,
2013-02-06 09:42:00,30.0,23.0,30.03,SSE,151,3.0,5.0,75,0.00,,,0.00,,2013-02-06 14:42:00,
2013-02-06 09:52:00,31.0,23.0,30.03,SSE,151,1.0,5.0,73,0.00,,,0.00,,2013-02-06 14:52:00,
2013-02-06 10:02:00,32.0,24.0,30.03,SSW,192,5.0,9.0,71,0.00,,,0.00,,2013-02-06 15:02:00,
2013-02-06 10:11:00,32.0,24.0,30.03,SSW,192,5.0,9.0,71,0.00,,,0.00,,2013-02-06 15:11:00,
2013-02-06 10:21:00,33.0,23.0,30.04,SW,230,8.0,16.0,67,0.00,,,0.00,,2013-02-06 15:21:00,
2013-02-06 10:32:00,33.0,23.0,30.05,WSW,258,12.0,18.0,67,0.00,,,0.00,,2013-02-06 15:32:00,
2013-02-06 10:42:00,33.0,23.0,30.05,WSW,258,12.0,18.0,67,0.00,,,0.00,,2013-02-06 15:42:00,
2013-02-06 10:52:00,32.0,23.0,30.06,West,270,6.0,14.0,70,0.00,,,0.00,,2013-02-06 15:52:00,
2013-02-06 11:01:00,32.0,24.0,30.06,WSW,245,7.0,14.0,71,0.00,,,0.00,,2013-02-06 16:01:00,
2013-02-06 11:11:00,32.0,24.0,30.06,WSW,245,7.0,14.0,71,0.00,,,0.00,,2013-02-06 16:11:00,
2013-02-06 11:21:00,32.0,24.0,30.07,WNW,298,4.0,15.0,73,0.00,,,0.00,,2013-02-06 16:21:00,
2013-02-06 11:32:00,32.0,25.0,30.07,WNW,294,11.0,24.0,74,0.00,,,0.00,,2013-02-06 16:32:00,
2013-02-06 11:42:00,32.0,25.0,30.07,WNW,294,11.0,24.0,74,0.00,,,0.00,,2013-02-06 16:42:00,
2013-02-06 11:52:00,31.0,23.0,30.08,West,267,11.0,21.0,73,0.00,,,0.00,,2013-02-06 16:52:00,
2013-02-06 12:02:00,31.0,23.0,30.09,West,268,8.0,21.0,73,0.00,,,0.00,,2013-02-06 17:02:00,
2013-02-06 12:12:00,31.0,23.0,30.09,West,268,8.0,21.0,73,0.00,,,0.00,,2013-02-06 17:12:00,
2013-02-06 12:22:00,32.0,24.0,30.09,West,261,8.0,22.0,73,0.00,,,0.00,,2013-02-06 17:22:00,
2013-02-06 12:32:00,32.0,24.0,30.09,West,280,7.0,18.0,73,0.00,,,0.00,,2013-02-06 17:32:00,
2013-02-06 12:42:00,32.0,24.0,30.09,West,280,7.0,18.0,73,0.00,,,0.00,,2013-02-06 17:42:00,
2013-02-06 12:52:00,32.0,23.0,30.10,SSW,205,12.0,22.0,69,0.00,,,0.00,,2013-02-06 17:52:00,
2013-02-06 13:01:00,32.0,22.0,30.10,WSW,240,7.0,19.0,67,0.00,,,0.00,,2013-02-06 18:01:00,
2013-02-06 13:11:00,33.0,21.0,30.11,WNW,298,11.0,26.0,60,0.00,,,0.00,,2013-02-06 18:11:00,
2013-02-06 13:23:00,33.0,21.0,30.11,WNW,298,11.0,26.0,60,0.00,,,0.00,,2013-02-06 18:23:00,
2013-02-06 13:32:00,33.0,19.0,30.11,NW,307,9.0,22.0,57,0.00,,,0.00,,2013-02-06 18:32:00,
2013-02-06 13:42:00,33.0,19.0,30.11,NW,307,9.0,22.0,57,0.00,,,0.00,,2013-02-06 18:42:00,
2013-02-06 13:52:00,32.0,17.0,30.12,NW,309,12.0,25.0,53,0.00,,,0.00,,2013-02-06 18:52:00,
2013-02-06 14:02:00,32.0,17.0,30.13,WSW,252,7.0,19.0,53,0.00,,,0.00,,2013-02-06 19:02:00,
2013-02-06 14:11:00,32.0,17.0,30.13,WSW,252,7.0,19.0,53,0.00,,,0.00,,2013-02-06 19:11:00,
2013-02-06 14:21:00,31.0,16.0,30.13,WNW,293,14.0,26.0,54,0.00,,,0.00,,2013-02-06 19:21:00,
2013-02-06 14:32:00,31.0,16.0,30.14,West,271,11.0,25.0,53,0.00,,,0.00,,2013-02-06 19:32:00,
2013-02-06 14:42:00,31.0,16.0,30.14,West,271,11.0,25.0,53,0.00,,,0.00,,2013-02-06 19:42:00,
2013-02-06 14:52:00,31.0,15.0,30.14,WSW,257,10.0,22.0,52,0.00,,,0.00,,2013-02-06 19:52:00,
2013-02-06 15:01:00,31.0,14.0,30.15,WNW,297,11.0,24.0,49,0.00,,,0.00,,2013-02-06 20:01:00,
2013-02-06 15:11:00,31.0,14.0,30.16,WNW,298,14.0,23.0,49,0.00,,,0.00,,2013-02-06 20:11:00,
2013-02-06 15:21:00,31.0,14.0,30.16,WNW,298,14.0,23.0,49,0.00,,,0.00,,2013-02-06 20:21:00,
2013-02-06 15:32:00,31.0,14.0,30.17,WSW,253,9.0,20.0,48,0.00,,,0.00,,2013-02-06 20:32:00,
2013-02-06 15:42:00,31.0,14.0,30.17,WSW,253,9.0,20.0,48,0.00,,,0.00,,2013-02-06 20:42:00,
2013-02-06 15:52:00,30.0,12.0,30.18,WSW,238,8.0,22.0,46,0.00,,,0.00,,2013-02-06 20:52:00,
2013-02-06 16:02:00,31.0,12.0,30.19,WSW,255,5.0,20.0,45,0.00,,,0.00,,2013-02-06 21:02:00,
2013-02-06 16:11:00,31.0,12.0,30.19,WSW,255,5.0,20.0,45,0.00,,,0.00,,2013-02-06 21:11:00,
2013-02-06 16:21:00,30.0,11.0,30.20,WSW,248,5.0,20.0,44,0.00,,,0.00,,2013-02-06 21:21:00,
2013-02-06 16:32:00,30.0,10.0,30.21,WNW,295,8.0,13.0,43,0.00,,,0.00,,2013-02-06 21:32:00,
2013-02-06 16:42:00,30.0,10.0,30.21,WNW,295,8.0,13.0,43,0.00,,,0.00,,2013-02-06 21:42:00,
2013-02-06 16:52:00,29.0,8.0,30.22,NW,306,8.0,15.0,41,0.00,,,0.00,,2013-02-06 21:52:00,
2013-02-06 17:01:00,29.0,8.0,30.22,West,263,10.0,17.0,40,0.00,,,0.00,,2013-02-06 22:01:00,
2013-02-06 17:11:00,29.0,8.0,30.22,West,263,10.0,17.0,40,0.00,,,0.00,,2013-02-06 22:11:00,
2013-02-06 17:22:00,28.0,7.0,30.23,WSW,248,7.0,16.0,41,0.00,,,0.00,,2013-02-06 22:22:00,
2013-02-06 17:32:00,28.0,7.0,30.24,West,261,5.0,17.0,41,0.00,,,0.00,,2013-02-06 22:32:00,
2013-02-06 17:42:00,28.0,7.0,30.24,West,261,5.0,17.0,41,0.00,,,0.00,,2013-02-06 22:42:00,
2013-02-06 17:52:00,27.0,7.0,30.26,WSW,256,8.0,17.0,42,0.00,,,0.00,,2013-02-06 22:52:00,
2013-02-06 18:01:00,27.0,7.0,30.26,West,266,6.0,18.0,42,0.00,,,0.00,,2013-02-06 23:01:00,
2013-02-06 18:11:00,27.0,7.0,30.26,West,266,6.0,18.0,42,0.00,,,0.00,,2013-02-06 23:11:00,
2013-02-06 18:21:00,26.0,7.0,30.28,West,280,4.0,10.0,44,0.00,,,0.00,,2013-02-06 23:21:00,
2013-02-06 18:32:00,26.0,7.0,30.29,West,265,5.0,13.0,44,0.00,,,0.00,,2013-02-06 23:32:00,
2013-02-06 18:42:00,26.0,7.0,30.29,West,265,5.0,13.0,44,0.00,,,0.00,,2013-02-06 23:42:00,
2013-02-06 18:52:00,25.0,8.0,30.30,WSW,245,7.0,11.0,47,0.00,,,0.00,,2013-02-06 23:52:00,
2013-02-06 19:02:00,25.0,8.0,30.30,WNW,284,6.0,11.0,48,0.00,,,0.00,,2013-02-07 00:02:00,
2013-02-06 19:11:00,25.0,8.0,30.30,WNW,284,6.0,11.0,48,0.00,,,0.00,,2013-02-07 00:11:00,
2013-02-06 19:22:00,25.0,9.0,30.32,West,273,7.0,15.0,50,0.00,,,0.00,,2013-02-07 00:22:00,
2013-02-06 19:32:00,24.0,9.0,30.32,WSW,250,6.0,13.0,51,0.00,,,0.00,,2013-02-07 00:32:00,
2013-02-06 19:42:00,24.0,9.0,30.32,WSW,250,6.0,13.0,51,0.00,,,0.00,,2013-02-07 00:42:00,
2013-02-06 19:52:00,24.0,9.0,30.32,West,267,7.0,17.0,53,0.00,,,0.00,,2013-02-07 00:52:00,
2013-02-06 20:01:00,24.0,10.0,30.32,West,267,7.0,21.0,54,0.00,,,0.00,,2013-02-07 01:01:00,
2013-02-06 20:11:00,24.0,10.0,30.32,West,267,7.0,21.0,54,0.00,,,0.00,,2013-02-07 01:11:00,
2013-02-06 20:21:00,23.0,9.0,30.34,NNE,13,10.0,20.0,55,0.00,,,0.00,,2013-02-07 01:21:00,
2013-02-06 20:32:00,23.0,10.0,30.34,West,277,7.0,24.0,56,0.00,,,0.00,,2013-02-07 01:32:00,
2013-02-06 20:42:00,23.0,10.0,30.34,West,277,7.0,24.0,56,0.00,,,0.00,,2013-02-07 01:42:00,
2013-02-06 20:52:00,23.0,10.0,30.35,West,273,6.0,16.0,57,0.00,,,0.00,,2013-02-07 01:52:00,
2013-02-06 21:01:00,23.0,10.0,30.36,West,266,5.0,14.0,58,0.00,,,0.00,,2013-02-07 02:01:00,
2013-02-06 21:11:00,23.0,10.0,30.36,West,266,5.0,14.0,58,0.00,,,0.00,,2013-02-07 02:11:00,
2013-02-06 21:21:00,22.0,10.0,30.37,NW,304,5.0,16.0,59,0.00,,,0.00,,2013-02-07 02:21:00,
2013-02-06 21:32:00,22.0,10.0,30.38,WNW,301,6.0,12.0,59,0.00,,,0.00,,2013-02-07 02:32:00,
2013-02-06 21:42:00,22.0,10.0,30.38,WNW,301,6.0,12.0,59,0.00,,,0.00,,2013-02-07 02:42:00,
2013-02-06 21:52:00,22.0,10.0,30.38,WNW,301,6.0,12.0,59,0.00,,,0.00,,2013-02-07 02:52:00,
2013-02-06 22:02:00,22.0,10.0,30.40,WNW,288,4.0,9.0,60,0.00,,,0.00,,2013-02-07 03:02:00,
2013-02-06 22:11:00,22.0,10.0,30.40,WNW,288,4.0,9.0,60,0.00,,,0.00,,2013-02-07 03:11:00,
2013-02-06 22:21:00,22.0,11.0,30.40,WNW,288,1.0,9.0,61,0.00,,,0.00,,2013-02-07 03:21:00,
2013-02-06 22:32:00,21.0,10.0,30.40,West,271,3.0,7.0,62,0.00,,,0.00,,2013-02-07 03:32:00,
2013-02-06 22:42:00,21.0,10.0,30.40,West,271,3.0,7.0,62,0.00,,,0.00,,2013-02-07 03:42:00,
2013-02-06 22:52:00,21.0,10.0,30.41,WSW,250,4.0,14.0,62,0.00,,,0.00,,2013-02-07 03:52:00,
2013-02-06 23:01:00,21.0,10.0,30.41,WSW,257,2.0,6.0,63,0.00,,,0.00,,2013-02-07 04:01:00,
2013-02-06 23:11:00,21.0,10.0,30.41,WSW,257,2.0,6.0,63,0.00,,,0.00,,2013-02-07 04:11:00,
2013-02-06 23:22:00,21.0,10.0,30.41,WSW,257,3.0,5.0,63,0.00,,,0.00,,2013-02-07 04:22:00,
2013-02-06 23:32:00,21.0,10.0,30.40,WNW,282,3.0,13.0,63,0.00,,,0.00,,2013-02-07 04:32:00,
2013-02-06 23:42:00,21.0,10.0,30.40,WNW,282,3.0,13.0,63,0.00,,,0.00,,2013-02-07 04:42:00,
2013-02-06 23:53:00,21.0,10.0,30.40,WNW,298,2.0,11.0,63,0.00,,,0.00,,2013-02-07 04:53:00,